Eureka, Nunavut

10:18 PM CST on December 10, 2017 (GMT -0600)
Eureka

Weather History for CWEU - March, 2013

Change the Weather History Date:

Thursday, March 21, 2013

  Actual Average Record
Temperature  
Mean Temperature -6 °F -  
Max Temperature 1 °F -16 °F 1 °F (2013)
Min Temperature -13 °F -31 °F -47 °F (2001)
Degree Days  
Heating Degree Days 71    
Moisture  
Dew Point -10 °F    
Average Humidity 69    
Maximum Humidity 85    
Minimum Humidity 51    
Precipitation  
Precipitation 0.00 in 0.00 in - ()
Sea Level Pressure  
Sea Level Pressure 30.69 in    
Wind  
Wind Speed 18 mph ()    
Max Wind Speed 31 mph    
Max Gust Speed 46 mph    
Visibility 3.5 miles    
Events Snow    
Averages and records for this station are not official NWS values.
T = Trace of Precipitation, MM = Missing Value Source: Averaged Metar Reports

Daily Weather History Graph

Daily Weather History Graph

Search for Another Location

Airport or City:

Trip Planner

Search our weather history database for the weather conditions in past years. The results will help you decide how hot, cold, wet, or windy it might be!

Date:

Astronomy

Mar. 21, 2013 Rise Set
Actual Time 6:22 AM CDT 7:23 PM CDT
Civil Twilight 4:12 AM CDT 9:37 PM CDT
Nautical Twilight Sun does not rise Sun does not rise
Astronomical Twilight Sun does not rise Sun does not rise
Moon No Moon Rise No Moon Set
Length of Visible Light 17h 24m
Length of Day
13h 01m
Waxing Gibbous, 69% of the Moon is Illuminated
Mar 21
Waxing Gibbous
Mar 27
Full
Apr 2
Last Quarter
Apr 10
New
Apr 18
First Quarter

Hourly Weather History & Observations

Time (CDT) Temp. Windchill Dew Point Humidity Pressure Visibility Wind Dir Wind Speed Gust Speed Precip Events Conditions
1:00 AM 10 °F - 5 °F 69% 30.43 in 15 mi South 12.7 mph - - Snow Low Drifting Snow
1:00 AM 10.4 °F -4.1 °F 5.0 °F 79% 30.43 in 15.0 mi South 11.5 mph 21.9 mph N/A Snow Low Drifting Snow
2:00 AM 10.4 °F -9.5 °F 5.0 °F 79% 30.46 in 15.0 mi South 23.0 mph 31.1 mph N/A Snow Low Drifting Snow
3:00 AM 8.6 °F -11.4 °F 5.0 °F 85% 30.50 in 15.0 mi South 21.9 mph 33.4 mph N/A Snow Low Drifting Snow
4:00 AM 5.0 °F -10.8 °F 1.4 °F 85% 30.54 in 15.0 mi SE 11.5 mph 23.0 mph N/A Snow Low Drifting Snow
4:35 AM - - - N/A% - 2.0 mi South 28.8 mph 46.0 mph N/A   Unknown
5:00 AM 5.0 °F -19.0 °F -2.2 °F 72% 30.57 in 2.5 mi South 29.9 mph 39.1 mph N/A Snow Blowing Snow
5:22 AM - - - N/A% - 6.0 mi South 24.2 mph 34.5 mph N/A   Unknown
6:00 AM 3.2 °F -14.6 °F -4.0 °F 72% 30.56 in 2.0 mi SSE 13.8 mph 24.2 mph N/A Snow Blowing Snow
7:00 AM 2 °F - -6 °F 56% 30.59 in 4 mi SE 19.6 mph - - Snow Blowing Snow
7:00 AM 1.4 °F -21.9 °F -5.8 °F 72% 30.59 in 4.0 mi SSE 24.2 mph 33.4 mph N/A Snow Blowing Snow
8:00 AM -0.4 °F -19.9 °F -7.6 °F 72% 30.62 in 4.0 mi SSE 15.0 mph 20.7 mph N/A Snow Blowing Snow
8:27 AM - - - N/A% - 1.5 mi SSE 18.4 mph 29.9 mph N/A   Unknown
9:00 AM -2.2 °F -20.7 °F -9.4 °F 71% 30.66 in 1.5 mi SE 12.7 mph - N/A Snow Blowing Snow
10:00 AM -2.2 °F -26.7 °F -11.2 °F 66% 30.67 in 1.5 mi SSE 24.2 mph - N/A Snow Blowing Snow
11:00 AM -4.0 °F -31.6 °F -11.2 °F 71% 30.66 in 1.5 mi SSE 31.1 mph - N/A Snow Blowing Snow
11:30 AM - - - N/A% - 0.5 mi SE 19.6 mph - N/A   Unknown
12:00 PM -4.0 °F -27.6 °F -13.0 °F 65% 30.71 in 0.5 mi SE 20.7 mph - N/A Snow Blowing Snow
12:25 PM - - - N/A% - 0.2 mi SE 29.9 mph - N/A   Unknown
1:00 PM -6 °F - -14 °F 54% 30.72 in 0 mi SSE 26.5 mph - - Snow Heavy Blowing Snow
1:00 PM -5.8 °F -32.0 °F -13.0 °F 71% 30.72 in 0.2 mi SSE 25.3 mph 33.4 mph N/A Snow Heavy Blowing Snow
2:00 PM -7.6 °F -36.1 °F -14.8 °F 71% 30.73 in 0.2 mi SSE 29.9 mph - N/A Snow Heavy Blowing Snow
3:00 PM -9.4 °F -35.2 °F -16.6 °F 71% 30.76 in 0.2 mi SE 21.9 mph - N/A Snow Heavy Blowing Snow
4:00 PM -9.4 °F -36.3 °F -18.4 °F 65% 30.80 in 0.2 mi SSE 24.2 mph 31.1 mph N/A Snow Heavy Blowing Snow
4:25 PM - - - N/A% - 0.5 mi SSE 20.7 mph - N/A   Unknown
5:00 PM -11.2 °F -34.4 °F -20.2 °F 64% 30.81 in 0.5 mi SE 16.1 mph 29.9 mph N/A Snow Blowing Snow
6:00 PM -13.0 °F -40.6 °F -20.2 °F 70% 30.84 in 0.5 mi South 23.0 mph - N/A Snow Blowing Snow
7:00 PM -12 °F - -20 °F 51% 30.87 in 0 mi SSE 16.1 mph - - Snow Blowing Snow
7:00 PM -13.0 °F -35.2 °F -20.2 °F 70% 30.87 in 0.5 mi SSE 13.8 mph 20.7 mph N/A Snow Blowing Snow
7:25 PM - - - N/A% - 0.2 mi SSE 24.2 mph - N/A   Unknown
7:45 PM - - - N/A% - 1.5 mi ESE 11.5 mph - N/A   Unknown
8:00 PM -11.2 °F -32.9 °F -20.2 °F 64% 30.90 in 1.5 mi SSE 13.8 mph - N/A Snow Blowing Snow
9:00 PM -11.2 °F -37.6 °F -20.2 °F 64% 30.91 in 2.5 mi South 21.9 mph - N/A Snow Blowing Snow
10:00 PM -9.4 °F -34.7 °F -16.6 °F 71% 30.93 in 2.5 mi SE 20.7 mph - N/A Snow Blowing Snow